Time,TemperatureF,DewpointF,PressureIn,WindDirection,WindDirectionDegrees,WindSpeedMPH,WindSpeedGustMPH,Humidity,HourlyPrecipIn,Conditions,Clouds,dailyrainin,SoftwareType,DateUTC
2013-03-05 08:01:00,40.5,41.0,30.40,NNE,24,6.0,-999.0,100,-99.99,,,0.00,weatherlink.com 1.10,2013-03-05 06:01:00,
2013-03-05 08:16:00,40.3,40.0,30.40,NNE,25,7.0,-999.0,100,-99.99,,,0.00,weatherlink.com 1.10,2013-03-05 06:16:00,
2013-03-05 08:31:00,40.6,41.0,30.41,NE,41,13.0,-999.0,100,-99.99,,,0.00,weatherlink.com 1.10,2013-03-05 06:31:00,
2013-03-05 08:46:00,40.8,41.0,30.41,NE,41,16.0,-999.0,100,-99.99,,,0.00,weatherlink.com 1.10,2013-03-05 06:46:00,
2013-03-05 09:01:00,40.2,40.0,30.42,North,11,13.0,-999.0,100,-99.99,,,0.00,weatherlink.com 1.10,2013-03-05 07:01:00,
2013-03-05 09:16:00,40.2,40.0,30.43,NE,52,7.0,-999.0,100,-99.99,,,0.00,weatherlink.com 1.10,2013-03-05 07:16:00,
2013-03-05 09:31:00,40.1,40.0,30.44,NNE,24,7.0,-999.0,100,-99.99,,,0.00,weatherlink.com 1.10,2013-03-05 07:31:00,
2013-03-05 09:46:00,40.6,41.0,30.44,North,7,7.0,-999.0,100,-99.99,,,0.00,weatherlink.com 1.10,2013-03-05 07:46:00,
2013-03-05 10:01:00,40.9,41.0,30.44,NNE,24,11.0,-999.0,100,-99.99,,,0.00,weatherlink.com 1.10,2013-03-05 08:01:00,
2013-03-05 10:16:00,40.9,41.0,30.45,North,0,10.0,-999.0,100,-99.99,,,0.00,weatherlink.com 1.10,2013-03-05 08:16:00,
2013-03-05 10:31:00,40.6,41.0,30.45,NNE,30,6.0,-999.0,100,-99.99,,,0.00,weatherlink.com 1.10,2013-03-05 08:31:00,
2013-03-05 10:46:00,41.1,41.0,30.45,NNE,24,14.0,-999.0,100,-99.99,,,0.00,weatherlink.com 1.10,2013-03-05 08:46:00,
2013-03-05 11:01:00,41.2,41.0,30.46,NE,48,17.0,-999.0,100,-99.99,,,0.00,weatherlink.com 1.10,2013-03-05 09:01:00,
2013-03-05 11:16:00,41.3,41.0,30.46,North,0,12.0,-999.0,100,-99.99,,,0.00,weatherlink.com 1.10,2013-03-05 09:16:00,
2013-03-05 11:31:00,41.3,41.0,30.46,ENE,65,14.0,-999.0,100,-99.99,,,0.00,weatherlink.com 1.10,2013-03-05 09:31:00,
2013-03-05 11:46:00,41.2,41.0,30.47,SSE,148,2.0,-999.0,100,-99.99,,,0.00,weatherlink.com 1.10,2013-03-05 09:46:00,
2013-03-05 12:01:00,41.2,41.0,30.47,NNE,24,14.0,-999.0,100,-99.99,,,0.00,weatherlink.com 1.10,2013-03-05 10:01:00,
2013-03-05 12:16:00,41.2,41.0,30.47,NE,56,7.0,-999.0,100,-99.99,,,0.00,weatherlink.com 1.10,2013-03-05 10:16:00,
2013-03-05 12:31:00,41.2,41.0,30.47,NE,54,8.0,-999.0,100,-99.99,,,0.00,weatherlink.com 1.10,2013-03-05 10:31:00,
2013-03-05 12:46:00,40.9,41.0,30.47,NNE,30,14.0,-999.0,100,-99.99,,,0.00,weatherlink.com 1.10,2013-03-05 10:46:00,
2013-03-05 13:01:00,40.6,41.0,30.46,NW,322,7.0,-999.0,100,-99.99,,,0.00,weatherlink.com 1.10,2013-03-05 11:01:00,
2013-03-05 13:16:00,41.1,41.0,30.46,NE,52,12.0,-999.0,100,-99.99,,,0.00,weatherlink.com 1.10,2013-03-05 11:16:00,
2013-03-05 13:31:00,40.6,41.0,30.46,North,8,12.0,-999.0,100,-99.99,,,0.00,weatherlink.com 1.10,2013-03-05 11:31:00,
2013-03-05 13:46:00,40.6,41.0,30.46,NE,40,5.0,-999.0,100,-99.99,,,0.00,weatherlink.com 1.10,2013-03-05 11:46:00,
2013-03-05 14:01:00,40.3,40.0,30.46,NE,40,14.0,-999.0,100,-99.99,,,0.00,weatherlink.com 1.10,2013-03-05 12:01:00,
2013-03-05 14:16:00,40.2,40.0,30.46,East,80,4.0,-999.0,100,-99.99,,,0.00,weatherlink.com 1.10,2013-03-05 12:16:00,
2013-03-05 14:31:00,39.9,40.0,30.45,NNE,23,6.0,-999.0,100,-99.99,,,0.00,weatherlink.com 1.10,2013-03-05 12:31:00,
2013-03-05 14:46:00,39.6,40.0,30.45,NE,49,12.0,-999.0,100,-99.99,,,0.00,weatherlink.com 1.10,2013-03-05 12:46:00,
2013-03-05 15:01:00,39.6,40.0,30.45,NE,35,7.0,-999.0,100,-99.99,,,0.00,weatherlink.com 1.10,2013-03-05 13:01:00,
2013-03-05 15:16:00,39.3,39.0,30.45,NNE,20,5.0,-999.0,100,-99.99,,,0.00,weatherlink.com 1.10,2013-03-05 13:16:00,
2013-03-05 15:31:00,38.9,39.0,30.46,NNE,28,14.0,-999.0,100,-99.99,,,0.00,weatherlink.com 1.10,2013-03-05 13:31:00,
2013-03-05 15:46:00,38.6,39.0,30.46,NE,51,7.0,-999.0,100,-99.99,,,0.00,weatherlink.com 1.10,2013-03-05 13:46:00,
2013-03-05 16:01:00,38.5,39.0,30.46,NE,42,11.0,-999.0,100,-99.99,,,0.00,weatherlink.com 1.10,2013-03-05 14:01:00,
2013-03-05 16:16:00,38.2,38.0,30.46,NNE,18,12.0,-999.0,100,-99.99,,,0.00,weatherlink.com 1.10,2013-03-05 14:16:00,
2013-03-05 16:31:00,38.0,38.0,30.46,NNE,17,4.0,-999.0,100,-99.99,,,0.00,weatherlink.com 1.10,2013-03-05 14:31:00,
2013-03-05 16:46:00,37.8,38.0,30.46,NNE,23,11.0,-999.0,100,-99.99,,,0.00,weatherlink.com 1.10,2013-03-05 14:46:00,
2013-03-05 17:02:00,37.6,38.0,30.46,NNE,24,8.0,-999.0,100,-99.99,,,0.00,weatherlink.com 1.10,2013-03-05 15:02:00,
2013-03-05 17:17:00,37.3,37.0,30.47,NNE,30,12.0,-999.0,100,-99.99,,,0.00,weatherlink.com 1.10,2013-03-05 15:17:00,
2013-03-05 17:32:00,37.2,37.0,30.47,NNE,20,6.0,-999.0,100,-99.99,,,0.00,weatherlink.com 1.10,2013-03-05 15:32:00,
2013-03-05 17:47:00,37.0,37.0,30.47,NE,42,7.0,-999.0,100,-99.99,,,0.00,weatherlink.com 1.10,2013-03-05 15:47:00,
2013-03-05 18:02:00,36.8,37.0,30.47,NE,42,9.0,-999.0,100,-99.99,,,0.00,weatherlink.com 1.10,2013-03-05 16:02:00,
2013-03-05 18:17:00,36.3,36.0,30.46,NE,45,7.0,-999.0,100,-99.99,,,0.00,weatherlink.com 1.10,2013-03-05 16:17:00,
2013-03-05 18:32:00,36.3,36.0,30.47,NE,35,4.0,-999.0,100,-99.99,,,0.00,weatherlink.com 1.10,2013-03-05 16:32:00,
2013-03-05 18:47:00,36.0,36.0,30.48,East,92,5.0,-999.0,100,-99.99,,,0.00,weatherlink.com 1.10,2013-03-05 16:47:00,
2013-03-05 19:02:00,35.9,36.0,30.48,NE,40,5.0,-999.0,100,-99.99,,,0.00,weatherlink.com 1.10,2013-03-05 17:02:00,
2013-03-05 19:17:00,35.8,36.0,30.48,NNE,25,2.0,-999.0,100,-99.99,,,0.00,weatherlink.com 1.10,2013-03-05 17:17:00,
2013-03-05 19:32:00,35.6,36.0,30.48,NNE,31,6.0,-999.0,100,-99.99,,,0.00,weatherlink.com 1.10,2013-03-05 17:32:00,
2013-03-05 19:47:00,35.8,36.0,30.48,ENE,59,5.0,-999.0,100,-99.99,,,0.00,weatherlink.com 1.10,2013-03-05 17:47:00,
2013-03-05 20:02:00,35.8,36.0,30.48,ENE,68,5.0,-999.0,100,-99.99,,,0.00,weatherlink.com 1.10,2013-03-05 18:02:00,
2013-03-05 20:17:00,35.5,36.0,30.48,NE,52,5.0,-999.0,100,-99.99,,,0.00,weatherlink.com 1.10,2013-03-05 18:17:00,
2013-03-05 20:32:00,35.5,36.0,30.49,ENE,61,7.0,-999.0,100,-99.99,,,0.00,weatherlink.com 1.10,2013-03-05 18:32:00,
2013-03-05 20:47:00,35.3,35.0,30.49,NE,44,5.0,-999.0,100,-99.99,,,0.00,weatherlink.com 1.10,2013-03-05 18:47:00,
2013-03-05 21:17:00,35.0,35.0,30.49,ENE,73,7.0,-999.0,100,-99.99,,,0.00,weatherlink.com 1.10,2013-03-05 19:17:00,
2013-03-05 21:32:00,35.0,35.0,30.49,East,85,0.0,-999.0,100,-99.99,,,0.00,weatherlink.com 1.10,2013-03-05 19:32:00,
2013-03-05 21:47:00,34.7,35.0,30.49,NE,45,0.0,-999.0,100,-99.99,,,0.00,weatherlink.com 1.10,2013-03-05 19:47:00,
2013-03-05 22:02:00,34.7,35.0,30.49,NE,44,0.0,-999.0,100,-99.99,,,0.00,weatherlink.com 1.10,2013-03-05 20:02:00,
2013-03-05 22:17:00,34.7,35.0,30.49,East,95,1.0,-999.0,100,-99.99,,,0.00,weatherlink.com 1.10,2013-03-05 20:17:00,
2013-03-05 22:32:00,34.7,35.0,30.49,East,97,6.0,-999.0,100,-99.99,,,0.00,weatherlink.com 1.10,2013-03-05 20:32:00,
2013-03-05 22:47:00,34.7,35.0,30.49,East,96,1.0,-999.0,100,-99.99,,,0.00,weatherlink.com 1.10,2013-03-05 20:47:00,
2013-03-05 23:02:00,34.4,34.0,30.49,NE,54,0.0,-999.0,100,-99.99,,,0.00,weatherlink.com 1.10,2013-03-05 21:02:00,
2013-03-05 23:32:00,34.3,34.0,30.49,ENE,73,0.0,-999.0,100,-99.99,,,0.00,weatherlink.com 1.10,2013-03-05 21:32:00,
2013-03-05 23:47:00,34.3,34.0,30.49,ESE,102,0.0,-999.0,100,-99.99,,,0.00,weatherlink.com 1.10,2013-03-05 21:47:00,